Location: Colossi of Memnon
(25.7167°N, 32.6167°E)
Time: 09:50:48
(UTC+00:00)

Cosmos 2227 Rocket - Pass Details

Date: 05 March 2021
Orbit: 839 x 845 km, 71.0° (Epoch: 19 April)

Event Time Altitude Azimuth Distance (km) Brightness Sun altitude
Rises 03:31:32 0° 188° (S) 3,382 5.3 -9.2°
Reaches altitude 10° 03:34:00 10° 185° (S) 2,451 4.6 -8.7°
Maximum altitude 03:39:31 60° 106° (ESE) 956 2.9 -7.4°
Drops below altitude 10° 03:45:05 10° 27° (NNE) 2,463 5.0 -6.2°
Sets 03:47:33 0° 24° (NNE) 3,401 5.6 -5.6°
